Weather in Antropovo

Russia / Kostroma Oblast     58°23′54″N   43°00′17″E
temp.,
°C
wind,
m/s
gust,
m/s
humid.,
%
clouds,
%
prec.,
mm/h
press.,
hPa
HPBL,
m
6 march, sat
sat600:00−16wnw239782 0.0 101065
03:00−19wnw239751 0.0 101221
06:00−19wnw239973 0.0 101220
09:00−15wnw259657 0.0 1013197
12:00−11wnw249198 0.1 1013652
15:00−10wnw348799 0.1 1012842
18:00−14w2294100 0.1 101220
21:00−16wsw239769 0.1 101120
7 march, sun
sun700:00−18ssw239831 0.0 100928
03:00−18s3610051 0.0 1007126
06:00−17s4109895 0.0 1004245
09:00−13sse5119597 0.0 1000426
12:00−9sse61192100 0.6 996796
15:00−8sse51094100 1.4 993815
18:00−8se51094100 1.0 989657
21:00−8ese51195100 2.2 988568
8 march, mon
mon800:00−8e4995100 1.4 987503
03:00−9ne4995100 2.3 988442
06:00−10nne51094100 0.8 990552
09:00−12nne51093100 1.3 993573
12:00−11n5991100 0.1 996643
15:00−10n5990100 0.3 999792
18:00−12nnw41092100 0.1 1003694
21:00−15n41093100 0.2 1006585
9 march, tue
tue900:00−19nnw3898100 0.0 1009232
03:00−23nnw379892 0.1 1011145
06:00−26nnw369847 0.0 1013125
09:00−24nnw359750 0.0 1015236
12:00−19nnw349375 0.0 1016402
15:00−17nnw359087 0.1 1017615
18:00−21nnw3796100 0.0 1018141
21:00−25nnw239977 0.0 102058
10 march, wed
wed1000:00−28nnw23980 0.0 102223
03:00−29nnw22980 0.0 102319
06:00−30nnw23970 0.0 102432
09:00−25nnw24960 0.0 1024192
12:00−17nnw238519 0.0 1024475
15:00−15nw248425 0.0 1023601
18:00−18w239424 0.0 102345
21:00−20wnw369757 0.0 1024104